Time,TemperatureF,DewpointF,PressureIn,WindDirection,WindDirectionDegrees,WindSpeedMPH,WindSpeedGustMPH,Humidity,HourlyPrecipIn,Conditions,Clouds,dailyrainin,SolarRadiationWatts/m^2,SoftwareType,DateUTC
2013-11-12 00:05:00,65.6,42.0,30.34,East,81,0.0,-999.0,42,-99.99,,,0.00,0,weatherlink.com 1.10,2013-11-12 08:05:00,
2013-11-12 00:20:00,65.0,38.0,30.35,East,81,0.0,-999.0,37,-99.99,,,0.00,0,weatherlink.com 1.10,2013-11-12 08:20:00,
2013-11-12 00:35:00,64.7,38.0,30.34,East,81,0.0,-999.0,37,-99.99,,,0.00,0,weatherlink.com 1.10,2013-11-12 08:35:00,
2013-11-12 00:50:00,64.7,36.0,30.34,East,81,1.0,-999.0,35,-99.99,,,0.00,0,weatherlink.com 1.10,2013-11-12 08:50:00,
2013-11-12 01:05:00,65.0,36.0,30.34,East,81,1.0,-999.0,34,-99.99,,,0.00,0,weatherlink.com 1.10,2013-11-12 09:05:00,
2013-11-12 01:20:00,64.8,36.0,30.35,East,81,1.0,-999.0,35,-99.99,,,0.00,0,weatherlink.com 1.10,2013-11-12 09:20:00,
2013-11-12 01:35:00,64.5,37.0,30.35,East,80,1.0,-999.0,36,-99.99,,,0.00,0,weatherlink.com 1.10,2013-11-12 09:35:00,
2013-11-12 01:50:00,64.7,36.0,30.35,East,80,2.0,-999.0,34,-99.99,,,0.00,0,weatherlink.com 1.10,2013-11-12 09:50:00,
2013-11-12 02:05:00,65.8,35.0,30.35,East,81,2.0,-999.0,32,-99.99,,,0.00,0,weatherlink.com 1.10,2013-11-12 10:05:00,
2013-11-12 02:20:00,66.1,35.0,30.35,East,80,1.0,-999.0,32,-99.99,,,0.00,0,weatherlink.com 1.10,2013-11-12 10:20:00,
2013-11-12 02:35:00,65.0,37.0,30.35,East,80,0.0,-999.0,35,-99.99,,,0.00,0,weatherlink.com 1.10,2013-11-12 10:35:00,
2013-11-12 02:50:00,63.8,37.0,30.35,East,81,0.0,-999.0,37,-99.99,,,0.00,0,weatherlink.com 1.10,2013-11-12 10:50:00,
2013-11-12 03:05:00,63.0,36.0,30.34,East,80,0.0,-999.0,37,-99.99,,,0.00,0,weatherlink.com 1.10,2013-11-12 11:05:00,
2013-11-12 03:20:00,63.2,36.0,30.35,East,81,0.0,-999.0,36,-99.99,,,0.00,0,weatherlink.com 1.10,2013-11-12 11:20:00,
2013-11-12 03:35:00,63.4,36.0,30.34,East,81,0.0,-999.0,36,-99.99,,,0.00,0,weatherlink.com 1.10,2013-11-12 11:35:00,
2013-11-12 03:50:00,63.4,36.0,30.35,East,81,0.0,-999.0,36,-99.99,,,0.00,0,weatherlink.com 1.10,2013-11-12 11:50:00,
2013-11-12 04:05:00,62.9,36.0,30.35,East,81,0.0,-999.0,37,-99.99,,,0.00,0,weatherlink.com 1.10,2013-11-12 12:05:00,
2013-11-12 04:20:00,62.9,36.0,30.35,East,81,0.0,-999.0,37,-99.99,,,0.00,0,weatherlink.com 1.10,2013-11-12 12:20:00,
2013-11-12 04:35:00,62.8,36.0,30.35,East,81,0.0,-999.0,37,-99.99,,,0.00,0,weatherlink.com 1.10,2013-11-12 12:35:00,
2013-11-12 04:50:00,63.8,36.0,30.36,East,80,0.0,-999.0,35,-99.99,,,0.00,0,weatherlink.com 1.10,2013-11-12 12:50:00,
2013-11-12 05:05:00,65.5,35.0,30.36,East,80,0.0,-999.0,32,-99.99,,,0.00,0,weatherlink.com 1.10,2013-11-12 13:05:00,
2013-11-12 05:20:00,65.4,36.0,30.36,East,81,2.0,-999.0,34,-99.99,,,0.00,0,weatherlink.com 1.10,2013-11-12 13:20:00,
2013-11-12 05:35:00,63.4,38.0,30.37,East,80,0.0,-999.0,39,-99.99,,,0.00,0,weatherlink.com 1.10,2013-11-12 13:35:00,
2013-11-12 05:50:00,62.1,39.0,30.37,East,81,0.0,-999.0,42,-99.99,,,0.00,0,weatherlink.com 1.10,2013-11-12 13:50:00,
2013-11-12 06:05:00,60.3,38.0,30.38,East,80,0.0,-999.0,44,-99.99,,,0.00,0,weatherlink.com 1.10,2013-11-12 14:05:00,
2013-11-12 06:20:00,59.2,38.0,30.39,East,81,0.0,-999.0,46,-99.99,,,0.00,7,weatherlink.com 1.10,2013-11-12 14:20:00,
2013-11-12 06:35:00,59.0,38.0,30.39,East,81,0.0,-999.0,45,-99.99,,,0.00,16,weatherlink.com 1.10,2013-11-12 14:35:00,
2013-11-12 06:51:00,60.2,36.0,30.39,East,81,0.0,-999.0,41,-99.99,,,0.00,60,weatherlink.com 1.10,2013-11-12 14:51:00,
2013-11-12 07:06:00,63.6,39.0,30.40,East,81,0.0,-999.0,40,-99.99,,,0.00,97,weatherlink.com 1.10,2013-11-12 15:06:00,
2013-11-12 07:21:00,65.4,43.0,30.40,East,81,0.0,-999.0,44,-99.99,,,0.00,109,weatherlink.com 1.10,2013-11-12 15:21:00,
2013-11-12 07:36:00,66.0,44.0,30.40,East,80,0.0,-999.0,46,-99.99,,,0.00,181,weatherlink.com 1.10,2013-11-12 15:36:00,
2013-11-12 07:51:00,66.9,44.0,30.41,East,80,0.0,-999.0,44,-99.99,,,0.00,236,weatherlink.com 1.10,2013-11-12 15:51:00,
2013-11-12 08:06:00,67.9,46.0,30.41,East,81,0.0,-999.0,46,-99.99,,,0.00,279,weatherlink.com 1.10,2013-11-12 16:06:00,
2013-11-12 08:21:00,70.4,49.0,30.41,East,81,0.0,-999.0,46,-99.99,,,0.00,309,weatherlink.com 1.10,2013-11-12 16:21:00,
2013-11-12 08:36:00,72.1,48.0,30.41,East,81,0.0,-999.0,42,-99.99,,,0.00,292,weatherlink.com 1.10,2013-11-12 16:36:00,
2013-11-12 08:51:00,72.7,48.0,30.41,East,80,0.0,-999.0,41,-99.99,,,0.00,299,weatherlink.com 1.10,2013-11-12 16:51:00,
2013-11-12 09:06:00,74.0,49.0,30.41,East,80,0.0,-999.0,41,-99.99,,,0.00,267,weatherlink.com 1.10,2013-11-12 17:06:00,
2013-11-12 09:21:00,74.5,49.0,30.41,East,86,0.0,-999.0,40,-99.99,,,0.00,250,weatherlink.com 1.10,2013-11-12 17:21:00,
2013-11-12 09:36:00,75.8,50.0,30.41,East,86,0.0,-999.0,41,-99.99,,,0.00,297,weatherlink.com 1.10,2013-11-12 17:36:00,
2013-11-12 09:51:00,77.4,52.0,30.40,East,86,0.0,-999.0,41,-99.99,,,0.00,367,weatherlink.com 1.10,2013-11-12 17:51:00,
2013-11-12 10:06:00,79.0,49.0,30.41,East,86,0.0,-999.0,35,-99.99,,,0.00,366,weatherlink.com 1.10,2013-11-12 18:06:00,
2013-11-12 10:21:00,80.6,51.0,30.40,East,86,0.0,-999.0,35,-99.99,,,0.00,394,weatherlink.com 1.10,2013-11-12 18:21:00,
2013-11-12 10:36:00,82.3,49.0,30.40,East,86,0.0,-999.0,31,-99.99,,,0.00,443,weatherlink.com 1.10,2013-11-12 18:36:00,
2013-11-12 10:52:00,83.9,47.0,30.39,East,86,0.0,-999.0,28,-99.99,,,0.00,468,weatherlink.com 1.10,2013-11-12 18:52:00,
2013-11-12 11:07:00,85.9,44.0,30.39,East,86,0.0,-999.0,23,-99.99,,,0.00,480,weatherlink.com 1.10,2013-11-12 19:07:00,
2013-11-12 11:22:00,87.5,44.0,30.38,East,86,0.0,-999.0,22,-99.99,,,0.00,439,weatherlink.com 1.10,2013-11-12 19:22:00,
2013-11-12 11:37:00,88.2,46.0,30.36,East,86,0.0,-999.0,23,-99.99,,,0.00,373,weatherlink.com 1.10,2013-11-12 19:37:00,
2013-11-12 11:52:00,87.4,44.0,30.36,East,86,0.0,-999.0,22,-99.99,,,0.00,315,weatherlink.com 1.10,2013-11-12 19:52:00,
2013-11-12 12:07:00,87.0,49.0,30.36,East,86,0.0,-999.0,27,-99.99,,,0.00,279,weatherlink.com 1.10,2013-11-12 20:07:00,
2013-11-12 12:22:00,87.0,46.0,30.35,East,86,0.0,-999.0,24,-99.99,,,0.00,253,weatherlink.com 1.10,2013-11-12 20:22:00,
2013-11-12 12:37:00,87.0,44.0,30.34,East,86,0.0,-999.0,22,-99.99,,,0.00,250,weatherlink.com 1.10,2013-11-12 20:37:00,
2013-11-12 12:52:00,87.3,49.0,30.34,East,86,0.0,-999.0,27,-99.99,,,0.00,243,weatherlink.com 1.10,2013-11-12 20:52:00,
2013-11-12 13:07:00,87.1,49.0,30.33,East,86,0.0,-999.0,27,-99.99,,,0.00,216,weatherlink.com 1.10,2013-11-12 21:07:00,
2013-11-12 13:22:00,86.8,44.0,30.33,East,86,0.0,-999.0,22,-99.99,,,0.00,204,weatherlink.com 1.10,2013-11-12 21:22:00,
2013-11-12 13:37:00,86.4,44.0,30.33,East,86,0.0,-999.0,23,-99.99,,,0.00,197,weatherlink.com 1.10,2013-11-12 21:37:00,
2013-11-12 13:52:00,86.1,49.0,30.33,East,86,0.0,-999.0,28,-99.99,,,0.00,179,weatherlink.com 1.10,2013-11-12 21:52:00,
2013-11-12 14:07:00,85.8,48.0,30.33,East,86,0.0,-999.0,27,-99.99,,,0.00,163,weatherlink.com 1.10,2013-11-12 22:07:00,
2013-11-12 14:22:00,85.4,51.0,30.32,East,86,0.0,-999.0,31,-99.99,,,0.00,123,weatherlink.com 1.10,2013-11-12 22:22:00,
2013-11-12 14:37:00,84.4,52.0,30.33,East,86,0.0,-999.0,33,-99.99,,,0.00,105,weatherlink.com 1.10,2013-11-12 22:37:00,
2013-11-12 14:52:00,83.4,54.0,30.33,East,87,0.0,-999.0,36,-99.99,,,0.00,95,weatherlink.com 1.10,2013-11-12 22:52:00,
2013-11-12 15:07:00,82.5,52.0,30.32,East,87,0.0,-999.0,35,-99.99,,,0.00,72,weatherlink.com 1.10,2013-11-12 23:07:00,
2013-11-12 15:22:00,82.1,53.0,30.32,East,87,0.0,-999.0,37,-99.99,,,0.00,47,weatherlink.com 1.10,2013-11-12 23:22:00,
2013-11-12 15:37:00,81.6,53.0,30.31,East,87,0.0,-999.0,37,-99.99,,,0.00,30,weatherlink.com 1.10,2013-11-12 23:37:00,
2013-11-12 15:52:00,80.9,51.0,30.31,East,87,0.0,-999.0,35,-99.99,,,0.00,28,weatherlink.com 1.10,2013-11-12 23:52:00,
2013-11-12 16:07:00,80.4,53.0,30.31,East,87,0.0,-999.0,39,-99.99,,,0.00,16,weatherlink.com 1.10,2013-11-13 00:07:00,
2013-11-12 16:22:00,79.6,52.0,30.31,East,87,0.0,-999.0,38,-99.99,,,0.00,9,weatherlink.com 1.10,2013-11-13 00:22:00,
2013-11-12 16:37:00,78.7,49.0,30.31,East,87,0.0,-999.0,35,-99.99,,,0.00,0,weatherlink.com 1.10,2013-11-13 00:37:00,
2013-11-12 16:52:00,78.4,49.0,30.31,East,87,0.0,-999.0,35,-99.99,,,0.00,0,weatherlink.com 1.10,2013-11-13 00:52:00,
2013-11-12 17:07:00,77.9,49.0,30.32,East,87,0.0,-999.0,36,-99.99,,,0.00,0,weatherlink.com 1.10,2013-11-13 01:07:00,
2013-11-12 17:22:00,77.4,50.0,30.32,East,87,0.0,-999.0,38,-99.99,,,0.00,0,weatherlink.com 1.10,2013-11-13 01:22:00,
2013-11-12 17:37:00,76.7,48.0,30.32,East,87,0.0,-999.0,37,-99.99,,,0.00,0,weatherlink.com 1.10,2013-11-13 01:37:00,
2013-11-12 17:52:00,76.5,50.0,30.33,East,87,0.0,-999.0,39,-99.99,,,0.00,0,weatherlink.com 1.10,2013-11-13 01:52:00,
2013-11-12 18:07:00,76.6,48.0,30.33,East,87,0.0,-999.0,37,-99.99,,,0.00,0,weatherlink.com 1.10,2013-11-13 02:07:00,
2013-11-12 18:22:00,76.2,48.0,30.33,East,87,0.0,-999.0,37,-99.99,,,0.00,0,weatherlink.com 1.10,2013-11-13 02:22:00,
2013-11-12 18:37:00,75.7,48.0,30.34,East,87,0.0,-999.0,37,-99.99,,,0.00,0,weatherlink.com 1.10,2013-11-13 02:37:00,
2013-11-12 18:52:00,74.8,47.0,30.34,East,87,0.0,-999.0,38,-99.99,,,0.00,0,weatherlink.com 1.10,2013-11-13 02:52:00,
2013-11-12 19:07:00,74.0,48.0,30.33,East,87,0.0,-999.0,40,-99.99,,,0.00,0,weatherlink.com 1.10,2013-11-13 03:07:00,
2013-11-12 19:22:00,72.6,48.0,30.34,East,87,0.0,-999.0,42,-99.99,,,0.00,0,weatherlink.com 1.10,2013-11-13 03:22:00,
2013-11-12 19:37:00,71.8,47.0,30.34,East,87,0.0,-999.0,42,-99.99,,,0.00,0,weatherlink.com 1.10,2013-11-13 03:37:00,
2013-11-12 19:52:00,71.5,46.0,30.33,East,87,0.0,-999.0,40,-99.99,,,0.00,0,weatherlink.com 1.10,2013-11-13 03:52:00,
2013-11-12 20:07:00,71.4,46.0,30.34,East,87,0.0,-999.0,41,-99.99,,,0.00,0,weatherlink.com 1.10,2013-11-13 04:07:00,
2013-11-12 20:22:00,71.0,45.0,30.34,East,87,0.0,-999.0,40,-99.99,,,0.00,0,weatherlink.com 1.10,2013-11-13 04:22:00,
2013-11-12 20:37:00,71.7,44.0,30.34,East,87,0.0,-999.0,37,-99.99,,,0.00,0,weatherlink.com 1.10,2013-11-13 04:37:00,
2013-11-12 20:52:00,72.2,42.0,30.34,East,87,0.0,-999.0,34,-99.99,,,0.00,0,weatherlink.com 1.10,2013-11-13 04:52:00,
2013-11-12 21:07:00,72.8,41.0,30.34,East,87,0.0,-999.0,32,-99.99,,,0.00,0,weatherlink.com 1.10,2013-11-13 05:07:00,
2013-11-12 21:22:00,72.8,40.0,30.34,East,87,0.0,-999.0,30,-99.99,,,0.00,0,weatherlink.com 1.10,2013-11-13 05:22:00,
2013-11-12 21:37:00,73.0,39.0,30.34,East,87,0.0,-999.0,29,-99.99,,,0.00,0,weatherlink.com 1.10,2013-11-13 05:37:00,
2013-11-12 21:52:00,72.5,38.0,30.34,East,87,0.0,-999.0,29,-99.99,,,0.00,0,weatherlink.com 1.10,2013-11-13 05:52:00,
2013-11-12 22:07:00,72.0,39.0,30.34,East,87,0.0,-999.0,30,-99.99,,,0.00,0,weatherlink.com 1.10,2013-11-13 06:07:00,
2013-11-12 22:22:00,71.3,39.0,30.34,East,87,0.0,-999.0,31,-99.99,,,0.00,0,weatherlink.com 1.10,2013-11-13 06:22:00,
2013-11-12 22:37:00,70.8,39.0,30.33,East,87,0.0,-999.0,32,-99.99,,,0.00,0,weatherlink.com 1.10,2013-11-13 06:37:00,
2013-11-12 22:52:00,70.5,39.0,30.33,East,87,0.0,-999.0,32,-99.99,,,0.00,0,weatherlink.com 1.10,2013-11-13 06:52:00,
2013-11-12 23:07:00,70.1,39.0,30.34,East,87,0.0,-999.0,32,-99.99,,,0.00,0,weatherlink.com 1.10,2013-11-13 07:07:00,
2013-11-12 23:22:00,70.0,38.0,30.33,East,87,0.0,-999.0,31,-99.99,,,0.00,0,weatherlink.com 1.10,2013-11-13 07:22:00,
2013-11-12 23:37:00,71.1,35.0,30.33,East,87,0.0,-999.0,27,-99.99,,,0.00,0,weatherlink.com 1.10,2013-11-13 07:37:00,
2013-11-12 23:52:00,71.3,37.0,30.33,East,87,0.0,-999.0,29,-99.99,,,0.00,0,weatherlink.com 1.10,2013-11-13 07:52:00,